Weather in Camagüey

Cuba     21°22′59″N   77°54′51″W
temp.,
°C
wind,
m/s
gust,
m/s
humid.,
%
clouds,
%
prec.,
mm/h
press.,
hPa
HPBL,
m
17 may, tue
tue1723:00+24wnw0189100 0.1 101611
02:00+23ene1191100 0.4 101511
05:00+23sse1194100 2.0 101413
08:00+23n1292100 2.3 101639
11:00+24se3491100 2.4 1017223
14:00+25ese3382100 2.4 1016454
17:00+26ene228098 2.3 1015231
20:00+24ese2390100 8.6 101672
18 may, wed
wed1823:00+23ese249584 2.1 101899
02:00+23ese239492 5.9 101665
05:00+23e239165 0.0 101679
08:00+24e248566 0.0 1017156
11:00+29e336416 0.0 1017945
14:00+31ese225890 0.3 10161382
17:00+30ne436168 0.8 10141038
20:00+24ne4789100 6.3 1016142
19 may, thu
thu1923:00+24e3991100 2.2 1017274
02:00+24ese3793100 2.2 1016228
05:00+23ese2592100 0.1 1015145
08:00+24e2384100 0.1 1016149
11:00+29e3364100 0.0 1017829
14:00+30e3461100 0.0 10151269
17:00+28ene5675100 3.5 1014710
20:00+25ene498771 3.9 1015287
20 may, fri
fri2023:00+24e4109283 1.3 1016280
02:00+24e2796100 1.9 1016234
05:00+24e2297100 0.7 101554
08:00+25ese3488100 0.7 1017262
11:00+29e3470100 0.0 1017821
14:00+32e455465 0.0 10161826
17:00+28ne587656 0.8 1015289
20:00+25ene498648 6.4 1017195
21 may, sat
sat2123:00+24ene5119257 1.5 1018350
02:00+24e5129492 1.5 1017449
05:00+23ese41096100 0.0 1017391
08:00+24ese3890100 0.0 1018364
11:00+29ese4569100 0.0 1018985
14:00+32ese4555100 0.0 10171586
17:00+31ene656091 0.6 10161044
20:00+25ene5984100 1.6 1018329